Back to catalog

COSMOS 2251 DEB

AliveLEO
NORAD 34946·DEBRIS·🇷🇺 Russia

Launched Jun 16, 1993 from Plesetsk Cosmodrome

Loading…

Next Passes (next 24 hours)

TLE

FreshSource: Space-Track

Epoch: Sep 14, 2026, 02:19 UTC

1 34946U 93036ADZ 26257.09682305  .00001280  00000-0  24952-3 0  9998
2 34946  74.0233 173.9043 0051700 241.8298 117.7641 14.63311595922357

Track COSMOS 2251 DEB in real time with AllMySat

Download on the App Store